Showing default

GGSE 5, 2834

Orbit data source: Space-Track

GGSE 5, 2834 is an American payload satellite in LEO that was launched on Wed, 31 May 1967 UTC via a THOR SLV-2 AGENA D launch vehicle from the Air Force Western Test Range (AFWTR). Payload-class satellites include a variety of spacecraft equipped with specific instruments for various scientific and technological missions. These include communications satellites like Starlink; space stations such as the ISS; scientific satellites like the Hubble; Earth observation satellites from companies like Planet Labs, Umbra, and HawkEye 360; GPS; miniature CubeSats for education and research; and military/defense satellites.

Loading next visibility...
Identifier
2834, 1967-053D
Orbit
LEO
Last TLE update
4 hours ago
Origin
Manufacturer
NRL
Mission
Defense Technology
Bus & Motor
NRL MULTI, Unknown motor
Mass
105 kg wet, 105 kg dry
Launch date (UTC)
1967-05-31 (58 years ago)
Launch vehicle
THOR SLV-2 AGENA D
Launch site
Air Force Western Test Range (AFWTR)
Object type
Payload
Rocket body
Debris
Shape & HBR
Ell + 2 Ant, 18 m
Radar Cross Section
1.247 m², Medium (>0.1 m² and < 1m²)

Expand to show TLE details & history

TLE from 4 hours ago
0 GGSE 5
1  2834U 67053D   25182.18809713 -.00000011  00000-0  30449-4 0  9990
2  2834  69.9711 164.5951 0009830 295.6401  64.3689 13.96132736957749
Epoch: 2025-07-01T04:30Z
TLE epoch observation values (Epoch: 2025-07-01T04:30:51.592Z)
Latitude
0.00004°
Longitude
177.39301°
Altitude
906.436 km
Speed
7.401 km/s
True Right ascension
10h 58m 22s
True Declination
0° 00' 00"
Sunlit
Object was in daylight at epoch
Visualization orbit readout
Latitude
0.77785°
Longitude
-3.27211°
Altitude
912.603 km
Speed
7.394 km/s
Apparent Right ascension
01h 40m 23s
Apparent Declination
-41° 24' 36"
Sunlit
Object is in daylight
Visualization observer readout
Local Sidereal Time
20:26:43
Azimuth
129.419° SE
Elevation
-17.996°
Doppler factor
1
Orbital elements
Apogee altitude
912.423 km
Perigee altitude
898.104 km
Semi-major axis
7,283.401 km
Eccentricity
0.00098
Inclination
69.9711°
RAAN
164.5951°
Arg. of periapsis
295.6401°
True anomaly
Unknown
Mean anomaly
64.3689°
Eccentric anomaly
Unknown
Mean motion
3.49174 °/min
Orbital period
103.1 mins
BSTAR
0.000030449
Loading maneuver chart data...
Loading SW <> Apogee altitude chart data...
Loading historical data...
Loading historical data...
Loading historical data...
Loading historical data...
Loading historical data...
Loading historical data...
Loading historical data...

GGSE 5 Visibility forecast

Observer location: undefined°, undefined°

Span
Click to sort rows by Start time (UTC) header in descending order
Start Az.
Max El. time (UTC)
Max El. Az.
Max El.
End time (UTC)
End Az.
11 mins2025-07-01 10:14:32.423Z330.804° NNW2025-07-01 10:19:32.423Z276.577° WNW43.301°2025-07-01 10:25:32.423Z165.647° S
9 mins2025-07-01 23:33:32.423Z164.203° S2025-07-01 23:37:32.423Z97.685° ESE32.554°2025-07-01 23:42:32.423Z39.869° NE
8 mins2025-07-02 01:19:32.423Z255.393° W2025-07-02 01:22:32.423Z298.311° NW27.753°2025-07-02 01:27:32.423Z3.45° NNE
7 mins2025-07-02 08:35:32.423Z11.369° NNE2025-07-02 08:38:32.423Z50.972° ENE23.355°2025-07-02 08:42:32.423Z100.898° ESE
|